ION SCV-012

导读 | 星芒AI

ION SCV-012 是由美国公司 Ionospheric Monitoring Systems(IMS)研发的一颗小型卫星,主要用于监测电离层变化,以研究其对通信和导航系统的影响。该卫星搭载高精度传感器,能够实时收集电离层电子密度数据,支持空间天气预报和地球物理研究。ION SCV-012 采用模块化设计,具有低成本、快速部署的特点,是小型卫星技术在科学探测领域的应用典范。

基本信息
目录编号:
60573
目录名称:
ION SCV-012
国际标识:
2024-149DK
轨道中心:
EARTH
卫星名称:
ION SCV-012
卫星全名:
ION SCV-012
卫星状态:
在轨 (已飞行484 天)
发射日期:
2024-08-16 UTC
国别 :
意大利 (IT)
星等 :
--
轨道信息
数据来源 国际轨道数据 AOE轨道数据
星历时间 2025-12-13T06:18:17+0800
11小时前
查看轨道信息
2025-12-07T10:00:00+0800
6天前
查看轨道信息
半长轴 6962.365km 6962.449km
偏心率 0.0003248 0.0003764
轨道倾角 97.699° 97.700°
近地点辐角 7.493° 30.194°
升交点赤经 59.749° 54.016°
平近点角 352.634° 218.866°
近地点 581.968km 581.693km
远地点 586.492km 586.935km
周期 96.360分钟 96.361分钟
每日圈数 14.944026 14.943755
详细信息
使用方式:
暂无
2D轨道图
3D轨道图
轨道高度分析图
轨道倾角分析图
轨道综合分析图
查看轨道综合分析图